GW0378 Weather Reports


time (UTC)temp
C
wind
direction
speed
KPH
gust
KPH
rain 1hr
cm
rain 24hr
cm
rain mn
cm
humidity
%
barometer
mb
20260831172655 15 277 0.0 8.0 0.00 0.00 0.00 48 1019.3
20260831172150 15 24 3.2 4.8 0.00 0.00 0.00 48 1019.6
20260831171645 15 90 0.0 4.8 0.00 0.00 0.00 48 1019.7
20260831171143 15 26 3.2 6.4 0.00 0.00 0.00 48 1019.8
20260831170638 15 60 0.0 4.8 0.00 0.00 0.00 52 1019.6
20260831170135 13 13 4.8 6.4 0.00 0.00 0.00 55 1019.8
20260831165631 14 60 0.0 3.2 0.00 0.00 0.00 53 1019.7
20260831165127 13 50 8.0 9.7 0.00 0.00 0.00 55 1019.9
20260831164623 13 294 4.8 6.4 0.00 0.00 0.00 58 1019.9
20260831164119 12 270 6.4 6.4 0.00 0.00 0.00 57 1020.1
20260831163613 13 285 1.6 6.4 0.00 0.00 0.00 56 1019.9
20260831163109 12 331 0.0 6.4 0.00 0.00 0.00 57 1020.2
20260831162608 12 349 0.0 4.8 0.00 0.00 0.00 59 1020.1
20260831162106 11 277 0.0 9.7 0.00 0.00 0.00 60 1020.0
20260831161602 11 352 3.2 4.8 0.00 0.00 0.00 61 1020.3
20260831161059 11 10 4.8 6.4 0.00 0.00 0.00 60 1020.2
20260831160557 11 151 0.0 3.2 0.00 0.00 0.00 61 1020.3
20260831160053 11 270 3.2 4.8 0.00 0.00 0.00 61 1020.2
20260831155547 11 40 3.2 3.2 0.00 0.00 0.00 61 1020.1
20260831155043 10 28 3.2 4.8 0.00 0.00 0.00 62 1020.2
20260831154539 11 114 3.2 4.8 0.00 0.00 0.00 60 1020.3
20260831154038 10 0 0.0 3.2 0.00 0.00 0.00 63 1020.5
20260831153538 10 11 0.0 4.8 0.00 0.00 0.00 64 1020.2
20260831153035 10 287 0.0 6.4 0.00 0.00 0.00 64 1020.3
20260831152530 10 34 3.2 6.4 0.00 0.00 0.00 64 1020.3
20260831152026 10 120 3.2 4.8 0.00 0.00 0.00 64 1020.3
20260831151525 9 346 0.0 4.8 0.00 0.00 0.00 66 1020.3
20260831151025 8 213 3.2 4.8 0.00 0.00 0.00 67 1020.5
20260831150520 8 16 0.0 4.8 0.00 0.00 0.00 67 1020.5
20260831150016 8 279 0.0 4.8 0.00 0.00 0.00 67 1020.3
20260831145511 8 194 1.6 3.2 0.00 0.00 0.00 67 1020.2
20260831145007 8 294 0.0 4.8 0.00 0.00 0.00 67 1020.2
20260831144502 8 294 1.6 3.2 0.00 0.00 0.00 66 1020.2
20260831143957 8 23 1.6 3.2 0.00 0.00 0.00 65 1020.3
20260831143452 8 292 3.2 3.2 0.00 0.00 0.00 66 1020.3
20260831142948 8 41 3.2 4.8 0.00 0.00 0.00 66 1020.3
20260831142444 8 270 0.0 1.6 0.00 0.00 0.00 66 1020.5
20260831141938 8 187 0.0 1.6 0.00 0.00 0.00 64 1020.2
20260831141431 10 74 0.0 1.6 0.00 0.00 0.00 61 1020.2
20260831140927 8 186 0.0 0.0 0.00 0.00 0.00 67 1020.2
20260831140421 7 186 0.0 3.2 0.00 0.00 0.00 68 1020.2
20260831135920 7 212 0.0 1.6 0.00 0.00 0.00 70 1020.2
20260831135420 6 225 0.0 4.8 0.00 0.00 0.00 71 1020.1
20260831134915 6 160 0.0 4.8 0.00 0.00 0.00 74 1020.0
20260831134412 5 78 1.6 4.8 0.00 0.00 0.00 77 1020.1
20260831133911 5 26 0.0 4.8 0.00 0.00 0.00 78 1019.9
20260831133406 5 113 3.2 3.2 0.00 0.00 0.00 79 1020.0
20260831132901 5 112 4.8 4.8 0.00 0.00 0.00 78 1019.9
20260831132356 5 140 0.0 3.2 0.00 0.00 0.00 75 1019.9
20260831131855 5 154 1.6 3.2 0.00 0.00 0.00 75 1019.8
20260831131351 5 105 1.6 3.2 0.00 0.00 0.00 76 1020.0
20260831130846 5 97 1.6 3.2 0.00 0.00 0.00 75 1019.9
20260831130342 5 121 3.2 3.2 0.00 0.00 0.00 76 1019.8
20260831125841 5 83 1.6 8.0 0.00 0.00 0.00 74 1019.9
20260831125336 6 144 3.2 6.4 0.00 0.00 0.00 72 1019.9
20260831124831 6 125 4.8 9.7 0.00 0.00 0.00 72 1019.7
20260831124327 6 125 3.2 6.4 0.00 0.00 0.00 73 1019.6
20260831123827 6 112 4.8 6.4 0.00 0.00 0.00 73 1019.6
20260831123326 5 118 4.8 6.4 0.00 0.00 0.00 75 1019.1
20260831122821 5 118 6.4 6.4 0.00 0.00 0.00 75 1019.6
20260831122316 5 135 3.2 6.4 0.00 0.00 0.00 75 1019.6
20260831121816 5 96 4.8 6.4 0.00 0.00 0.00 75 1019.6
20260831121313 6 105 3.2 4.8 0.00 0.00 0.00 73 1019.5
20260831120808 5 123 6.4 6.4 0.00 0.00 0.00 73 1019.0
20260831120302 5 148 0.0 6.4 0.00 0.00 0.00 74 1019.3
20260831115757 5 98 3.2 4.8 0.00 0.00 0.00 74 1019.2
20260831115254 6 131 6.4 9.7 0.00 0.00 0.00 72 1019.5
20260831114753 6 124 4.8 8.0 0.00 0.00 0.00 73 1019.8
20260831114247 6 132 3.2 6.4 0.00 0.00 0.00 73 1019.3
20260831113742 5 132 0.0 3.2 0.00 0.00 0.00 73 1019.5
20260831113237 5 103 1.6 4.8 0.00 0.00 0.00 73 1019.3
20260831112736 5 114 1.6 4.8 0.00 0.00 0.00 73 1019.5
20260831112231 6 120 0.0 3.2 0.00 0.00 0.00 72 1019.5
20260831111727 6 117 3.2 6.4 0.00 0.00 0.00 71 1019.2
20260831111223 6 108 4.8 8.0 0.00 0.00 0.00 69 1019.3
20260831110719 6 125 6.4 9.7 0.00 0.00 0.00 70 1019.5
20260831110214 6 100 6.4 8.0 0.00 0.00 0.00 71 1019.3
20260831105712 6 103 8.0 9.7 0.00 0.00 0.00 70 1019.3
20260831105208 6 107 4.8 6.4 0.00 0.00 0.00 70 1019.2
20260831104703 7 102 4.8 6.4 0.00 0.00 0.00 68 1019.3
20260831104200 7 90 6.4 6.4 0.00 0.00 0.00 67 1019.3
20260831103659 7 120 4.8 8.0 0.00 0.00 0.00 66 1019.3
20260831103155 7 113 6.4 8.0 0.00 0.00 0.00 67 1019.1
20260831102654 7 122 6.4 8.0 0.00 0.00 0.00 68 1019.2
20260831102149 7 115 6.4 8.0 0.00 0.00 0.00 67 1019.1
20260831101645 7 118 4.8 6.4 0.00 0.00 0.00 68 1019.2
20260831101141 6 67 6.4 9.7 0.00 0.00 0.00 69 1019.2
20260831100637 6 119 4.8 8.0 0.00 0.00 0.00 69 1019.0
20260831100133 6 80 3.2 8.0 0.00 0.00 0.00 69 1019.1
20260831095630 6 112 4.8 6.4 0.00 0.00 0.00 70 1019.1
20260831095126 6 103 4.8 4.8 0.00 0.00 0.00 70 1019.0
20260831094621 6 112 4.8 4.8 0.00 0.00 0.00 70 1018.9
20260831094117 7 105 1.6 1.6 0.00 0.00 0.00 68 1018.9
20260831093613 7 103 3.2 4.8 0.00 0.00 0.00 69 1018.8
20260831093108 7 98 4.8 4.8 0.00 0.00 0.00 69 1019.0
20260831092604 7 126 0.0 3.2 0.00 0.00 0.00 67 1019.0
20260831092100 7 139 3.2 3.2 0.00 0.00 0.00 67 1019.1
20260831091559 7 94 3.2 4.8 0.00 0.00 0.00 66 1019.0
20260831091055 8 255 0.0 3.2 0.00 0.00 0.00 64 1018.9
20260831090550 8 63 3.2 6.4 0.00 0.00 0.00 61 1018.9
20260831090046 8 90 3.2 6.4 0.00 0.00 0.00 63 1019.0
20260831085541 8 124 4.8 8.0 0.00 0.00 0.00 64 1019.0
20260831085036 7 108 8.0 8.0 0.00 0.00 0.00 66 1018.9
20260831084532 7 110 6.4 8.0 0.00 0.00 0.00 67 1019.0
20260831084028 7 106 4.8 4.8 0.00 0.00 0.00 69 1019.0
20260831083524 7 120 4.8 4.8 0.00 0.00 0.00 67 1019.0
20260831083018 7 131 4.8 4.8 0.00 0.00 0.00 66 1019.0
20260831082518 7 109 4.8 6.4 0.00 0.00 0.00 66 1018.8
20260831082013 8 96 4.8 6.4 0.00 0.00 0.00 66 1018.6
20260831081509 7 97 4.8 4.8 0.00 0.00 0.00 66 1018.6
20260831081004 8 126 0.0 3.2 0.00 0.00 0.00 66 1018.6
20260831080458 8 127 3.2 4.8 0.00 0.00 0.00 65 1018.6
20260831075954 8 96 4.8 8.0 0.00 0.00 0.00 64 1018.7
20260831075449 8 95 6.4 8.0 0.00 0.00 0.00 63 1018.7
20260831074945 8 84 1.6 4.8 0.00 0.00 0.00 62 1018.6
20260831074444 10 120 0.0 3.2 0.00 0.00 0.00 60 1018.7
20260831073939 10 117 1.6 4.8 0.00 0.00 0.00 59 1018.5
20260831073438 10 109 0.0 6.4 0.00 0.00 0.00 59 1018.5
20260831072933 9 98 4.8 6.4 0.00 0.00 0.00 60 1018.6
20260831072429 8 112 6.4 6.4 0.00 0.00 0.00 62 1018.5
20260831071925 9 96 6.4 6.4 0.00 0.00 0.00 61 1018.5
20260831071424 9 99 3.2 6.4 0.00 0.00 0.00 60 1018.5
20260831070924 10 129 3.2 11.3 0.00 0.00 0.00 59 1018.6
20260831070423 10 101 8.0 12.9 0.00 0.00 0.00 57 1018.7
20260831065923 10 61 4.8 12.9 0.00 0.00 0.00 57 1018.6
20260831065420 10 105 8.0 14.5 0.00 0.00 0.00 56 1018.8
20260831064916 10 90 6.4 16.1 0.00 0.00 0.00 57 1018.7
20260831064411 10 101 9.7 14.5 0.00 0.00 0.00 56 1018.6
20260831063907 10 84 8.0 16.1 0.00 0.00 0.00 56 1018.6
20260831063402 10 117 6.4 9.7 0.00 0.00 0.00 57 1018.6
20260831062856 10 105 11.3 14.5 0.00 0.00 0.00 57 1018.7
20260831062351 10 105 8.0 11.3 0.00 0.00 0.00 58 1018.8
20260831061850 10 93 4.8 8.0 0.00 0.00 0.00 59 1018.7
20260831061349 10 115 4.8 6.4 0.00 0.00 0.00 58 1018.8
20260831060845 11 109 4.8 9.7 0.00 0.00 0.00 56 1018.3
20260831060340 11 90 6.4 11.3 0.00 0.00 0.00 54 1018.7
20260831055839 11 92 11.3 11.3 0.00 0.00 0.00 56 1018.6
20260831055334 11 121 9.7 12.9 0.00 0.00 0.00 54 1018.7
20260831054830 11 92 8.0 11.3 0.00 0.00 0.00 55 1018.7
20260831054325 11 104 8.0 11.3 0.00 0.00 0.00 55 1018.7
20260831053824 11 49 4.8 4.8 0.00 0.00 0.00 56 1018.7
20260831053323 11 108 6.4 9.7 0.00 0.00 0.00 55 1018.6
20260831052818 11 100 9.7 11.3 0.00 0.00 0.00 55 1018.7
20260831052317 11 97 6.4 8.0 0.00 0.00 0.00 56 1018.5
20260831051815 11 110 4.8 4.8 0.00 0.00 0.00 57 1018.5
20260831051314 11 111 4.8 6.4 0.00 0.00 0.00 56 1018.2
20260831050809 11 114 9.7 11.3 0.00 0.00 0.00 54 1018.6
20260831050307 11 119 6.4 8.0 0.00 0.00 0.00 56 1018.6
20260831045802 11 105 3.2 4.8 0.00 0.00 0.00 57 1018.6
20260831045257 12 120 4.8 6.4 0.00 0.00 0.00 53 1018.3
20260831044752 12 87 4.8 6.4 0.00 0.00 0.00 53 1018.6
20260831044246 12 90 8.0 9.7 0.00 0.00 0.00 53 1018.6
20260831043742 12 97 4.8 6.4 0.00 0.00 0.00 54 1018.3
20260831043237 12 106 3.2 4.8 0.00 0.00 0.00 52 1018.5
20260831042736 12 108 8.0 11.3 0.00 0.00 0.00 53 1018.3
20260831042231 12 90 1.6 8.0 0.00 0.00 0.00 52 1018.2
20260831041726 12 107 4.8 8.0 0.00 0.00 0.00 50 1018.3
20260831041226 12 110 3.2 8.0 0.00 0.00 0.00 51 1018.2
20260831040721 12 104 8.0 9.7 0.00 0.00 0.00 53 1018.1
20260831040220 12 113 3.2 4.8 0.00 0.00 0.00 50 1018.2
20260831035719 13 99 0.0 0.0 0.00 0.00 0.00 47 1018.2
20260831035213 13 173 1.6 3.2 0.00 0.00 0.00 49 1018.2
20260831034712 13 180 3.2 4.8 0.00 0.00 0.00 49 1018.0
20260831034208 13 127 3.2 4.8 0.00 0.00 0.00 51 1018.1
20260831033703 13 139 3.2 3.2 0.00 0.00 0.00 50 1017.9
20260831033203 13 120 0.0 3.2 0.00 0.00 0.00 48 1018.1
20260831032658 13 180 0.0 4.8 0.00 0.00 0.00 48 1017.9
20260831032153 13 109 3.2 3.2 0.00 0.00 0.00 48 1017.8
20260831031648 13 112 3.2 4.8 0.00 0.00 0.00 49 1017.8
20260831031147 13 111 0.0 3.2 0.00 0.00 0.00 48 1017.7
20260831030646 14 115 3.2 4.8 0.00 0.00 0.00 48 1017.6
20260831030145 15 135 0.0 3.2 0.00 0.00 0.00 45 1017.6
20260831025644 14 103 1.6 3.2 0.00 0.00 0.00 48 1017.2
20260831025139 15 135 3.2 4.8 0.00 0.00 0.00 46 1017.0
20260831024635 15 132 3.2 3.2 0.00 0.00 0.00 45 1017.2
20260831024133 16 139 3.2 3.2 0.00 0.00 0.00 45 1017.0
20260831023632 16 0 1.6 6.4 0.00 0.00 0.00 41 1016.7
20260831023132 16 297 4.8 11.3 0.00 0.00 0.00 41 1016.8
20260831022627 16 288 3.2 4.8 0.00 0.00 0.00 41 1016.8
20260831022122 16 273 6.4 8.0 0.00 0.00 0.00 40 1017.1
20260831021620 17 77 1.6 6.4 0.00 0.00 0.00 41 1017.0
20260831021116 17 314 6.4 8.0 0.00 0.00 0.00 40 1016.9
20260831020612 17 277 1.6 12.9 0.00 0.00 0.00 39 1016.6
20260831020107 17 326 3.2 11.3 0.00 0.00 0.00 38 1016.9
20260831015603 18 263 11.3 11.3 0.00 0.00 0.00 38 1016.8
20260831015057 18 268 8.0 14.5 0.00 0.00 0.00 37 1016.6
20260831014552 18 287 4.8 12.9 0.00 0.00 0.00 37 1016.8
20260831014047 18 272 8.0 12.9 0.00 0.00 0.00 36 1016.6
20260831013543 18 307 11.3 16.1 0.00 0.00 0.00 36 1016.5
20260831013037 19 280 8.0 16.1 0.00 0.00 0.00 35 1016.6
20260831012532 19 299 8.0 12.9 0.00 0.00 0.00 36 1016.7
20260831012032 19 253 11.3 17.7 0.00 0.00 0.00 35 1016.6
20260831011527 20 291 4.8 9.7 0.00 0.00 0.00 35 1016.6
20260831011022 20 274 8.0 14.5 0.00 0.00 0.00 35 1016.8
20260831010523 19 314 9.7 20.9 0.00 0.00 0.00 35 1016.6
20260831010019 20 275 6.4 16.1 0.00 0.00 0.00 34 1016.7
20260831005520 20 309 8.0 12.9 0.00 0.00 0.00 34 1016.5
20260831005019 20 222 4.8 12.9 0.00 0.00 0.00 34 1016.5
20260831004515 20 258 12.9 16.1 0.00 0.00 0.00 34 1016.8
20260831004010 20 275 12.9 29.0 0.00 0.00 0.00 34 1016.7
20260831003506 20 307 6.4 17.7 0.00 0.00 0.00 34 1016.8
20260831003001 20 356 14.5 24.1 0.00 0.00 0.00 33 1016.6
20260831002500 20 296 11.3 22.5 0.00 0.00 0.00 33 1016.7
20260831001955 20 330 8.0 24.1 0.00 0.00 0.00 33 1016.2
20260831001450 20 319 6.4 19.3 0.00 0.00 0.00 34 1016.5
20260831000948 20 277 8.0 24.1 0.00 0.00 0.00 33 1016.5
20260831000443 20 275 14.5 24.1 0.00 0.00 0.00 32 1016.6
20260830235941 20 311 8.0 19.3 0.00 0.00 0.00 33 1016.5
20260830235436 20 286 6.4 20.9 0.00 0.00 0.00 34 1016.6
20260830234932 20 15 8.0 22.5 0.00 0.00 0.00 33 1016.6
20260830234427 20 298 8.0 19.3 0.00 0.00 0.00 32 1016.5
20260830233923 21 330 9.7 11.3 0.00 0.00 0.00 33 1016.5
20260830233418 21 270 11.3 22.5 0.00 0.00 0.00 33 1016.4
20260830232913 20 259 9.7 17.7 0.00 0.00 0.00 34 1016.5
20260830232409 20 292 8.0 17.7 0.00 0.00 0.00 33 1016.5
20260830231906 20 268 8.0 14.5 0.00 0.00 0.00 34 1016.4
20260830231401 20 298 11.3 12.9 0.00 0.00 0.00 34 1016.5
20260830230900 20 313 4.8 20.9 0.00 0.00 0.00 34 1016.4
20260830230355 20 249 4.8 14.5 0.00 0.00 0.00 34 1016.4
20260830225854 20 280 14.5 20.9 0.00 0.00 0.00 33 1016.8
20260830225350 20 315 12.9 27.4 0.00 0.00 0.00 33 1016.5
20260830224844 20 290 4.8 14.5 0.00 0.00 0.00 32 1016.6
20260830224338 20 265 19.3 32.2 0.00 0.00 0.00 33 1016.4
20260830223836 21 320 11.3 27.4 0.00 0.00 0.00 32 1016.1
20260830223332 21 287 6.4 16.1 0.00 0.00 0.00 32 1016.4
20260830222831 20 318 8.0 17.7 0.00 0.00 0.00 32 1016.6
20260830222326 21 279 14.5 20.9 0.00 0.00 0.00 31 1016.1
20260830221821 21 266 9.7 17.7 0.00 0.00 0.00 32 1016.5
20260830221318 21 336 9.7 16.1 0.00 0.00 0.00 33 1016.5
20260830220812 21 277 12.9 20.9 0.00 0.00 0.00 33 1016.8
20260830220312 21 264 4.8 16.1 0.00 0.00 0.00 35 1016.9
20260830215810 21 346 8.0 11.3 0.00 0.00 0.00 33 1016.6
20260830215306 20 299 8.0 20.9 0.00 0.00 0.00 35 1016.6
20260830214800 20 296 8.0 16.1 0.00 0.00 0.00 36 1016.6
20260830214255 19 264 8.0 20.9 0.00 0.00 0.00 36 1016.7
20260830213754 19 281 8.0 14.5 0.00 0.00 0.00 36 1016.6
20260830213249 18 295 11.3 14.5 0.00 0.00 0.00 36 1016.8
20260830212745 18 350 4.8 17.7 0.00 0.00 0.00 35 1016.6
20260830212241 18 243 8.0 17.7 0.00 0.00 0.00 36 1016.7
20260830211740 19 3 4.8 17.7 0.00 0.00 0.00 35 1016.8
20260830211239 20 266 8.0 17.7 0.00 0.00 0.00 36 1016.7
20260830210736 20 255 3.2 25.7 0.00 0.00 0.00 35 1016.8
20260830210234 20 246 6.4 16.1 0.00 0.00 0.00 36 1016.7
20260830205732 20 41 3.2 12.9 0.00 0.00 0.00 34 1017.0
20260830205227 20 289 8.0 16.1 0.00 0.00 0.00 35 1016.6
20260830204722 20 297 8.0 16.1 0.00 0.00 0.00 35 1016.9
20260830204221 20 255 3.2 20.9 0.00 0.00 0.00 37 1017.0
20260830203717 19 263 16.1 46.7 0.00 0.00 0.00 34 1016.8
20260830203213 18 272 9.7 24.1 0.00 0.00 0.00 35 1017.0
20260830202712 18 270 9.7 27.4 0.00 0.00 0.00 35 1017.0
20260830202208 18 277 4.8 14.5 0.00 0.00 0.00 35 1016.8
20260830201707 18 228 3.2 16.1 0.00 0.00 0.00 38 1016.9
20260830201202 18 264 12.9 24.1 0.00 0.00 0.00 35 1016.8
20260830200658 18 280 9.7 27.4 0.00 0.00 0.00 35 1016.8
20260830200157 18 188 3.2 27.4 0.00 0.00 0.00 35 1016.9
20260830195652 18 285 8.0 16.1 0.00 0.00 0.00 36 1016.9
20260830195150 18 289 8.0 22.5 0.00 0.00 0.00 35 1016.9
20260830194650 18 261 8.0 24.1 0.00 0.00 0.00 36 1016.9
20260830194150 18 348 3.2 16.1 0.00 0.00 0.00 36 1016.9
20260830193644 17 239 8.0 19.3 0.00 0.00 0.00 37 1016.8
20260830193139 18 281 11.3 20.9 0.00 0.00 0.00 35 1017.0
20260830192634 18 6 6.4 20.9 0.00 0.00 0.00 36 1017.0
20260830192129 18 253 9.7 11.3 0.00 0.00 0.00 37 1017.1
20260830191624 17 286 3.2 22.5 0.00 0.00 0.00 38 1017.1
20260830191119 17 189 8.0 24.1 0.00 0.00 0.00 38 1017.2
20260830190610 17 278 11.3 17.7 0.00 0.00 0.00 39 1017.0
20260830190110 17 292 12.9 17.7 0.00 0.00 0.00 39 1017.2
20260830185603 17 248 4.8 24.1 0.00 0.00 0.00 39 1017.1
20260830185059 17 249 4.8 8.0 0.00 0.00 0.00 41 1017.4
20260830184557 17 248 3.2 14.5 0.00 0.00 0.00 41 1017.5
20260830184052 17 297 6.4 11.3 0.00 0.00 0.00 40 1017.2
20260830183547 17 231 4.8 17.7 0.00 0.00 0.00 41 1017.6
20260830183043 16 234 11.3 12.9 0.00 0.00 0.00 44 1017.7
20260830182538 16 319 6.4 12.9 0.00 0.00 0.00 45 1017.8
20260830182034 16 239 11.3 16.1 0.00 0.00 0.00 43 1017.7
20260830181531 16 164 8.0 20.9 0.00 0.00 0.00 44 1017.8
20260830181030 16 162 4.8 24.1 0.00 0.00 0.00 44 1018.0
20260830180529 16 191 14.5 20.9 0.00 0.00 0.00 45 1017.7
20260830180028 16 286 14.5 19.3 0.00 0.00 0.00 46 1017.9
20260830175528 16 268 11.3 22.5 0.00 0.00 0.00 45 1017.9
20260830175023 16 215 12.9 25.7 0.00 0.00 0.00 46 1017.8
20260830174519 16 245 11.3 22.5 0.00 0.00 0.00 45 1017.9
20260830174014 16 217 6.4 19.3 0.00 0.00 0.00 47 1018.1
20260830173509 15 247 8.0 17.7 0.00 0.00 0.00 47 1017.9
20260830173010 15 278 1.6 12.9 0.00 0.00 0.00 47 1017.9